FREGAT DEB, 45823

Orbit data source: Space-Track

FREGAT DEB, 45823 is space debris in LEO originally from a launch on Mon, 18 Jul 2011 UTC launched from the Tyuratam Missile And Space Complex (TTMTR). Debris objects in space refer to the collection of defunct objects orbiting the Earth. Examples of debris include non-operational satellites, rocket bodies, and fragments generated from explosions, collisions, or faulty payload assembly.

Loading next visibility...
Identifier
45823, 2011-037BH
Orbit
LEO
Country
Flag of CISCIS
Related business
Manufacturer
Lavochkin
Mission
Spacecraft
Bus & Motor
Unknown
Mass
Unknown
Launch date (UTC)
2011-07-18 (14 years ago)
Launch vehicle
Unknown
Launch site
Tyuratam Missile And Space Complex (TTMTR)
Object type
Payload
Rocket body
Debris
Shape & HBR
Unknown shape, 0.3 m
Radar Cross Section
Small (<0.1 m²)

Expand to show TLE details & history
Last TLE update: 2 days ago

TLE from 2 days ago
0 FREGAT DEB
1 45823U 11037BH  25312.39473747  .00003296  00000-0  69304-3 0  9996
2 45823  51.4555   6.9549 1879364 262.4695  75.9919 11.32493342223946
Epoch: 2025-11-08T09:28Z
TLE epoch observation values (Epoch: 2025-11-08T09:28:25.317Z)
Latitude
-0.00008°
Longitude
177.02438°
Altitude
1,909.133 km
Speed
6.974 km/s
True Right ascension
00h 27m 49s
True Declination
0° 00' 00"
Sunlit
Object was in full shadow at epoch
Visualization orbit readout
Latitude
Unknown
Longitude
Unknown
Altitude
Unknown
Speed
Unknown
Apparent Right ascension
Unknown
Apparent Declination
Unknown
Sunlit
N/A
Visualization observer readout
Local Sidereal Time
17:53:06
Azimuth
Unknown
Elevation
Unknown
Doppler factor
Unknown
Orbital elements
Apogee altitude
3,572.753 km
Perigee altitude
424.21 km
Semi-major axis
8,376.618 km
Eccentricity
0.18794
Inclination
51.4555°
RAAN
6.9549°
Arg. of periapsis
262.4695°
True anomaly
97.61568°
Mean anomaly
75.9919°
Eccentric anomaly
86.74246°
Mean motion
2.831 °/min
Orbital period
127.16 mins
BSTAR
0.00069304
Loading maneuver chart data...
Computing Atmospheric mass density...
Loading historical data...
Loading historical data...
Loading historical data...
Loading historical data...
Loading historical data...
Loading historical data...
Loading historical data...

Documentation

Showing up to 5 results
|